W4SNA-2 Weather Reports


time (UTC)temp
C
wind
direction
speed
KPH
gust
KPH
rain 1hr
cm
rain 24hr
cm
rain mn
cm
humidity
%
barometer
mb
20260906052030 22 335 4.8 9.7 0.00 0.00 0.00 85 1015.9
20260906051530 22 335 3.2 8.0 0.00 0.00 0.00 86 1016.0
20260906051030 22 335 4.8 9.7 0.00 0.00 0.00 85 1016.0
20260906050530 22 335 6.4 9.7 0.00 0.00 0.00 84 1015.9
20260906050030 22 335 6.4 9.7 0.00 0.00 0.00 84 1015.9
20260906045532 22 335 6.4 9.7 0.00 0.00 0.00 83 1016.0
20260906045030 22 335 4.8 12.9 0.00 0.00 0.00 82 1016.1
20260906044533 22 335 6.4 12.9 0.00 0.00 0.00 81 1016.1
20260906044030 22 335 4.8 12.9 0.00 0.00 0.00 81 1016.0
20260906043531 22 335 4.8 12.9 0.00 0.00 0.00 81 1016.0
20260906043030 22 335 4.8 9.7 0.00 0.00 0.00 82 1016.1
20260906042454 22 335 6.4 9.7 0.00 0.00 0.00 83 1016.0
20260906042321 22 335 6.4 9.7 0.00 0.00 0.00 83 1016.0
20260906041821 22 335 4.8 9.7 0.00 0.00 0.00 84 1016.1
20260906041321 22 335 3.2 6.4 0.00 0.00 0.00 84 1016.2
20260906040822 22 335 1.6 6.4 0.00 0.00 0.00 83 1016.3
20260906040321 22 335 1.6 8.0 0.00 0.00 0.00 83 1016.3
20260906035821 23 335 1.6 16.1 0.00 0.00 0.00 82 1016.2
20260906035321 23 333 4.8 16.1 0.00 0.00 0.00 81 1016.2
20260906034821 23 333 3.2 14.5 0.00 0.00 0.00 81 1016.0
20260906034321 23 333 4.8 12.9 0.00 0.00 0.00 81 1016.1
20260906033821 23 333 4.8 12.9 0.00 0.00 0.00 81 1016.1
20260906033131 23 334 3.2 14.5 0.00 0.00 0.00 81 1016.2
20260906032630 23 335 3.2 12.9 0.00 0.00 0.00 81 1016.1
20260906032130 23 335 3.2 12.9 0.00 0.00 0.00 81 1016.2
20260906031631 23 335 3.2 9.7 0.00 0.00 0.00 81 1016.2
20260906031132 23 335 1.6 9.7 0.00 0.00 0.00 81 1016.1
20260906030630 23 0 0.0 8.0 0.00 0.00 0.00 81 1016.1
20260906030131 23 0 0.0 8.0 0.00 0.00 0.00 81 1016.1
20260906025630 23 335 1.6 9.7 0.00 0.00 0.00 81 1016.0
20260906025130 23 335 1.6 14.5 0.00 0.00 0.00 80 1016.1
20260906024630 23 334 3.2 14.5 0.00 0.00 0.00 79 1016.0
20260906023740 23 329 3.2 12.9 0.00 0.00 0.00 80 1016.1
20260906023413 23 328 1.6 8.0 0.00 0.00 0.00 80 1016.2
20260906023240 23 328 3.2 8.0 0.00 0.00 0.00 81 1016.2
20260906022743 23 328 1.6 8.0 0.00 0.00 0.00 80 1016.2
20260906022240 23 328 1.6 8.0 0.00 0.00 0.00 80 1016.3
20260906021740 24 0 0.0 8.0 0.00 0.00 0.00 80 1016.2
20260906021240 24 0 0.0 4.8 0.00 0.00 0.00 79 1016.1
20260906020740 24 0 0.0 9.7 0.00 0.00 0.00 79 1016.0
20260906020240 24 329 1.6 9.7 0.00 0.00 0.00 79 1015.9
20260906015740 24 329 1.6 8.0 0.00 0.00 0.00 79 1015.9
20260906015240 24 0 0.0 8.0 0.00 0.00 0.00 79 1015.9
20260906014741 24 329 1.6 9.7 0.00 0.00 0.00 79 1015.9
20260906014240 24 329 1.6 9.7 0.00 0.00 0.00 79 1015.8
20260906013740 24 0 0.0 9.7 0.00 0.00 0.00 79 1015.9
20260906013240 24 0 0.0 8.0 0.00 0.00 0.00 79 1016.0
20260906012823 24 0 0.0 8.0 0.00 0.00 0.00 79 1016.0
20260906012740 24 0 0.0 8.0 0.00 0.00 0.00 79 1016.0
20260906012240 24 331 1.6 8.0 0.00 0.00 0.00 79 1015.9
20260906011740 24 331 1.6 9.7 0.00 0.00 0.00 79 1015.7
20260906011240 24 331 3.2 9.7 0.00 0.00 0.00 79 1015.6
20260906010740 24 331 3.2 9.7 0.00 0.00 0.00 79 1015.5
20260906010240 24 331 3.2 6.4 0.00 0.00 0.00 79 1015.5
20260906005740 24 331 1.6 6.4 0.00 0.00 0.00 78 1015.4
20260906005240 25 331 3.2 9.7 0.00 0.00 0.00 78 1015.5
20260906004740 25 331 3.2 9.7 0.00 0.00 0.00 78 1015.4
20260906004240 25 0 0.0 8.0 0.00 0.00 0.00 77 1015.5
20260906003740 25 0 0.0 6.4 0.00 0.00 0.00 76 1015.4
20260906003240 25 331 1.6 6.4 0.00 0.00 0.00 76 1015.4
20260906002740 25 331 1.6 8.0 0.00 0.00 0.00 76 1015.3
20260906002240 25 331 3.2 8.0 0.00 0.00 0.00 76 1015.2
20260906001742 24 331 1.6 6.4 0.00 0.00 0.00 76 1015.1
20260906001242 24 331 1.6 9.7 0.00 0.00 0.00 76 1015.1
20260906000740 25 0 0.0 9.7 0.00 0.00 0.00 76 1015.1
20260906000241 25 0 0.0 4.8 0.00 0.00 0.00 75 1015.0
20260905235740 25 0 0.0 4.8 0.00 0.00 0.00 75 1015.0
20260905235240 25 0 0.0 4.8 0.00 0.00 0.00 75 1014.9
20260905234741 25 0 0.0 4.8 0.00 0.00 0.00 74 1014.9
20260905234243 25 0 0.0 6.4 0.00 0.00 0.00 74 1014.9
20260905233740 25 331 1.6 8.0 0.00 0.00 0.00 74 1014.8
20260905233240 25 0 0.0 8.0 0.00 0.00 0.00 73 1014.9
20260905232740 25 331 1.6 14.5 0.00 0.00 0.00 73 1014.8
20260905232240 25 0 0.0 14.5 0.00 0.00 0.00 73 1014.6
20260905231739 25 0 0.0 12.9 0.00 0.00 0.00 73 1014.6
20260905231241 25 329 1.6 12.9 0.00 0.00 0.00 73 1014.5
20260905230741 25 0 0.0 8.0 0.00 0.00 0.00 72 1014.6
20260905230241 26 0 0.0 6.4 0.00 0.00 0.00 72 1014.7
20260905225740 26 0 0.0 6.4 0.00 0.00 0.00 72 1014.7
20260905225240 26 0 0.0 3.2 0.00 0.00 0.00 72 1014.7
20260905224740 26 0 0.0 4.8 0.00 0.00 0.00 72 1014.8
20260905224240 26 0 0.0 4.8 0.00 0.00 0.00 72 1014.8
20260905223740 26 0 0.0 14.5 0.00 0.00 0.00 72 1014.8
20260905223240 26 325 1.6 14.5 0.00 0.00 0.00 72 1014.8
20260905222740 26 0 0.0 12.9 0.00 0.00 0.00 72 1014.8
20260905222246 26 324 1.6 12.9 0.00 0.00 0.00 72 1014.9
20260905221740 26 0 0.0 12.9 0.00 0.00 0.00 72 1014.9
20260905221240 26 0 0.0 12.9 0.00 0.00 0.00 71 1014.9
20260905220740 26 0 0.0 12.9 0.00 0.00 0.00 71 1015.0
20260905220240 26 0 0.0 12.9 0.00 0.00 0.00 70 1015.0
20260905215740 26 0 0.0 9.7 0.00 0.00 0.00 71 1014.9
20260905215240 26 310 1.6 8.0 0.00 0.00 0.00 70 1014.9
20260905214742 25 308 1.6 8.0 0.00 0.00 0.00 71 1014.9
20260905214240 25 307 1.6 8.0 0.00 0.00 0.00 71 1015.0
20260905213740 25 305 1.6 8.0 0.00 0.00 0.00 71 1015.0
20260905213239 25 0 0.0 11.3 0.00 0.00 0.00 70 1015.0
20260905212740 25 0 0.0 11.3 0.00 0.00 0.00 69 1015.1
20260905212240 25 0 0.0 9.7 0.00 0.00 0.00 69 1015.1
20260905211740 25 316 1.6 12.9 0.00 0.00 0.00 68 1015.1
20260905211240 25 315 1.6 12.9 0.00 0.00 0.00 68 1015.0
20260905210740 25 313 1.6 12.9 0.00 0.00 0.00 68 1015.0
20260905210240 26 312 3.2 12.9 0.00 0.00 0.00 68 1014.9
20260905205739 26 311 1.6 14.5 0.00 0.00 0.00 67 1014.8
20260905205241 26 309 3.2 14.5 0.00 0.00 0.00 66 1014.7
20260905204741 25 302 3.2 12.9 0.00 0.00 0.00 67 1014.7
20260905204239 26 294 1.6 11.3 0.00 0.00 0.00 67 1014.8
20260905203740 26 291 3.2 11.3 0.00 0.00 0.00 65 1014.8
20260905203240 26 289 1.6 8.0 0.00 0.00 0.00 65 1014.7
20260905202739 26 287 1.6 8.0 0.00 0.00 0.00 64 1014.7
20260905202240 26 283 1.6 8.0 0.00 0.00 0.00 64 1014.8
20260905201742 26 299 1.6 12.9 0.00 0.00 0.00 65 1014.8
20260905201241 26 300 3.2 12.9 0.00 0.00 0.00 65 1014.8
20260905200740 26 287 1.6 9.7 0.00 0.00 0.00 66 1014.9
20260905200239 26 0 0.0 8.0 0.00 0.00 0.00 65 1014.8
20260905195739 26 344 3.2 8.0 0.00 0.00 0.00 64 1014.8
20260905195719 26 0 0.0 6.4 0.00 0.00 0.00 65 1014.9
20260905195239 26 0 0.0 6.4 0.00 0.00 0.00 65 1014.9
20260905194741 26 0 0.0 6.4 0.00 0.00 0.00 63 1015.0
20260905194250 26 0 0.0 4.8 0.00 0.00 0.00 69 1015.0
20260905193855 26 0 0.0 4.8 0.00 0.00 0.00 69 1015.0
20260905193355 26 344 1.6 8.0 0.00 0.00 0.00 70 1014.4
20260905192855 26 0 0.0 8.0 0.00 0.00 0.00 69 1014.4
20260905192355 25 0 0.0 8.0 0.00 0.00 0.00 69 1014.5
20260905191855 25 344 1.6 14.5 0.00 0.00 0.00 70 1014.6
20260905191409 25 344 1.6 14.5 0.00 0.00 0.00 72 1014.8
20260905190855 24 0 0.0 14.5 0.00 0.00 0.00 74 1014.7
20260905190355 24 340 4.8 14.5 0.00 0.00 0.00 73 1014.7
20260905185855 24 338 1.6 8.0 0.00 0.00 0.00 72 1014.8
20260905185355 24 0 0.0 9.7 0.00 0.00 0.00 70 1014.4
20260905184855 23 339 1.6 9.7 0.00 0.00 0.00 75 1014.0
20260905184358 23 339 4.8 9.7 0.00 0.00 0.00 74 1013.7
20260905183855 23 339 4.8 12.9 0.00 0.00 0.00 78 1013.8
20260905183355 24 340 6.4 12.9 0.00 0.00 0.00 78 1013.8
20260905182855 24 340 3.2 14.5 0.00 0.00 0.00 76 1014.3
20260905182355 25 335 6.4 19.3 0.00 0.00 0.00 74 1014.4
20260905181855 25 332 11.3 19.3 0.00 0.00 0.00 72 1014.5
20260905181355 25 344 4.8 16.1 0.00 0.00 0.00 71 1014.7
20260905180855 25 0 0.0 16.1 0.00 0.00 0.00 72 1014.9
20260905180356 25 318 4.8 16.1 0.00 0.00 0.00 73 1015.3
20260905175855 25 327 3.2 14.5 0.00 0.00 0.00 73 1015.6
20260905175355 25 326 6.4 22.5 0.00 0.00 0.00 71 1015.7
20260905174855 26 321 6.4 22.5 0.00 0.00 0.00 70 1015.8
20260905174356 26 344 9.7 20.9 0.00 0.00 0.00 68 1016.0
20260905173855 27 325 8.0 25.7 0.00 0.00 0.00 69 1015.9
20260905173355 28 331 8.0 25.7 0.00 0.00 0.00 67 1015.7
20260905172500 30 326 3.2 19.3 0.00 0.00 0.00 65 1016.0
20260905172001 30 303 4.8 16.1 0.00 0.00 0.00 64 1016.2
20260905171504 30 300 4.8 14.5 0.00 0.00 0.00 63 1016.2
20260905171000 31 300 1.6 14.5 0.00 0.00 0.00 64 1016.4
20260905170502 30 299 1.6 17.7 0.00 0.00 0.00 64 1016.6
20260905170000 30 298 4.8 17.7 0.00 0.00 0.00 65 1016.6
20260905165500 30 296 4.8 17.7 0.00 0.00 0.00 65 1016.7
20260905165000 30 293 1.6 11.3 0.00 0.00 0.00 66 1016.9
20260905164519 30 293 6.4 19.3 0.00 0.00 0.00 65 1016.9
20260905164500 30 293 1.6 19.3 0.00 0.00 0.00 66 1016.9
20260905164002 30 293 6.4 19.3 0.00 0.00 0.00 65 1016.9
20260905163607 30 283 3.2 12.9 0.00 0.00 0.00 65 1016.8
20260905163502 30 283 3.2 12.9 0.00 0.00 0.00 65 1016.8
20260905163000 30 283 1.6 11.3 0.00 0.00 0.00 66 1016.8
20260905162500 30 0 0.0 11.3 0.00 0.00 0.00 69 1016.8
20260905162000 30 282 1.6 11.3 0.00 0.00 0.00 68 1016.9
20260905161836 30 0 0.0 11.3 0.00 0.00 0.00 69 1016.9
20260905161502 30 0 0.0 11.3 0.00 0.00 0.00 69 1016.9
20260905161155 30 282 1.6 9.7 0.00 0.00 0.00 68 1016.9
20260905161000 30 282 1.6 9.7 0.00 0.00 0.00 68 1016.9
20260905160533 30 282 3.2 9.7 0.00 0.00 0.00 69 1016.9
20260905160500 30 282 3.2 9.7 0.00 0.00 0.00 69 1016.9
20260905160001 30 0 0.0 6.4 0.00 0.00 0.00 67 1016.9
20260905155500 30 282 1.6 11.3 0.00 0.00 0.00 69 1017.0
20260905155001 29 0 0.0 11.3 0.00 0.00 0.00 70 1017.0
20260905154743 30 0 0.0 11.3 0.00 0.00 0.00 68 1017.0
20260905154500 30 0 0.0 9.7 0.00 0.00 0.00 67 1017.1
20260905154000 30 0 0.0 11.3 0.00 0.00 0.00 68 1017.0
20260905153501 30 0 0.0 11.3 0.00 0.00 0.00 68 1017.1
20260905153001 30 0 0.0 6.4 0.00 0.00 0.00 69 1017.0
20260905152550 30 282 3.2 9.7 0.00 0.00 0.00 68 1017.0
20260905152503 30 282 3.2 9.7 0.00 0.00 0.00 68 1017.0
20260905152001 30 282 1.6 9.7 0.00 0.00 0.00 66 1017.0
20260905151500 30 0 0.0 4.8 0.00 0.00 0.00 67 1017.1
20260905151000 30 0 0.0 4.8 0.00 0.00 0.00 68 1017.1
20260905150501 30 0 0.0 4.8 0.00 0.00 0.00 68 1017.1
20260905150001 30 0 0.0 3.2 0.00 0.00 0.00 67 1017.1
20260905145500 30 0 0.0 4.8 0.00 0.00 0.00 66 1017.1
20260905145001 30 0 0.0 4.8 0.00 0.00 0.00 67 1017.1
20260905144502 29 0 0.0 4.8 0.00 0.00 0.00 67 1017.1
20260905144001 29 0 0.0 6.4 0.00 0.00 0.00 68 1017.1
20260905143501 29 0 0.0 6.4 0.00 0.00 0.00 70 1017.1
20260905143001 28 0 0.0 6.4 0.00 0.00 0.00 70 1017.2
20260905142500 28 0 0.0 6.4 0.00 0.00 0.00 70 1017.1
20260905142000 28 0 0.0 6.4 0.00 0.00 0.00 71 1017.0
20260905141500 28 282 1.6 6.4 0.00 0.00 0.00 70 1017.0
20260905141000 28 0 0.0 16.1 0.00 0.00 0.00 70 1016.9
20260905140510 28 0 0.0 16.1 0.00 0.00 0.00 70 1016.8
20260905140000 28 0 0.0 11.3 0.00 0.00 0.00 71 1016.7
20260905135500 27 0 0.0 11.3 0.00 0.00 0.00 73 1016.7
20260905135001 27 0 0.0 9.7 0.00 0.00 0.00 72 1016.6
20260905134542 27 0 0.0 9.7 0.00 0.00 0.00 72 1016.7
20260905134500 27 0 0.0 9.7 0.00 0.00 0.00 72 1016.7
20260905134000 27 0 0.0 6.4 0.00 0.00 0.00 72 1016.8
20260905133501 27 0 0.0 12.9 0.00 0.00 0.00 72 1016.8
20260905133003 27 285 1.6 12.9 0.00 0.00 0.00 72 1016.8
20260905132500 27 0 0.0 9.7 0.00 0.00 0.00 72 1016.7
20260905132000 27 285 1.6 12.9 0.00 0.00 0.00 71 1016.8
20260905131500 27 0 0.0 12.9 0.00 0.00 0.00 72 1016.7
20260905131000 27 0 0.0 9.7 0.00 0.00 0.00 73 1016.7
20260905130057 26 0 0.0 9.7 0.00 0.00 0.00 73 1016.8
20260905125600 26 285 1.6 12.9 0.00 0.00 0.00 73 1016.8
20260905125100 26 285 4.8 12.9 0.00 0.00 0.00 73 1016.8
20260905124557 26 285 1.6 11.3 0.00 0.00 0.00 74 1016.9
20260905124058 26 285 1.6 12.9 0.00 0.00 0.00 74 1016.9
20260905123557 26 0 0.0 12.9 0.00 0.00 0.00 74 1016.9
20260905123100 26 284 1.6 12.9 0.00 0.00 0.00 75 1016.8
20260905122557 25 284 1.6 16.1 0.00 0.00 0.00 75 1016.7
20260905122057 25 284 4.8 17.7 0.00 0.00 0.00 75 1016.7
20260905121557 25 283 6.4 17.7 0.00 0.00 0.00 75 1016.6
20260905121057 25 280 6.4 12.9 0.00 0.00 0.00 75 1016.7
20260905120155 25 280 4.8 16.1 0.00 0.00 0.00 75 1016.8
20260905115652 25 280 4.8 14.5 0.00 0.00 0.00 75 1016.8
20260905115158 25 280 4.8 14.5 0.00 0.00 0.00 76 1016.7
20260905114652 25 280 4.8 11.3 0.00 0.00 0.00 76 1016.6
20260905114153 25 280 1.6 14.5 0.00 0.00 0.00 76 1016.5
20260905113653 25 280 3.2 14.5 0.00 0.00 0.00 76 1016.5
20260905113154 25 280 3.2 11.3 0.00 0.00 0.00 76 1016.5
20260905112652 25 280 1.6 9.7 0.00 0.00 0.00 76 1016.5
20260905112152 24 0 0.0 9.7 0.00 0.00 0.00 76 1016.4
20260905111652 24 0 0.0 9.7 0.00 0.00 0.00 76 1016.3
20260905111154 25 280 1.6 14.5 0.00 0.00 0.00 76 1016.3
20260905110654 25 280 4.8 14.5 0.00 0.00 0.00 75 1016.3
20260905110200 25 280 4.8 12.9 0.00 0.00 0.00 75 1016.3
20260905105652 25 279 4.8 12.9 0.00 0.00 0.00 75 1016.3
20260905105152 25 280 4.8 14.5 0.00 0.00 0.00 74 1016.3
20260905104652 25 280 4.8 14.5 0.00 0.00 0.00 74 1016.3
20260905104055 25 280 4.8 16.1 0.00 0.00 0.00 74 1016.2
20260905103555 25 280 8.0 16.1 0.00 0.00 0.00 74 1016.1
20260905103100 25 280 4.8 14.5 0.00 0.00 0.00 74 1016.1
20260905102555 25 280 6.4 14.5 0.00 0.00 0.00 74 1016.1
20260905102055 24 280 6.4 14.5 0.00 0.00 0.00 75 1016.1
20260905101555 24 280 6.4 12.9 0.00 0.00 0.00 76 1016.1
20260905101055 24 280 6.4 12.9 0.00 0.00 0.00 77 1016.1
20260905100555 24 280 4.8 12.9 0.00 0.00 0.00 77 1016.1
20260905100055 24 280 3.2 12.9 0.00 0.00 0.00 76 1016.1
20260905095555 25 280 1.6 12.9 0.00 0.00 0.00 75 1016.1
20260905095055 25 280 3.2 12.9 0.00 0.00 0.00 74 1016.1
20260905094557 25 280 3.2 12.9 0.00 0.00 0.00 74 1016.1
20260905094055 25 0 0.0 6.4 0.00 0.00 0.00 74 1016.0
20260905093555 25 280 1.6 6.4 0.00 0.00 0.00 74 1016.0
20260905093055 25 0 0.0 9.7 0.00 0.00 0.00 73 1016.0
20260905092555 25 280 3.2 9.7 0.00 0.00 0.00 73 1016.0
20260905092058 25 0 0.0 6.4 0.00 0.00 0.00 73 1016.0
20260905091555 25 0 0.0 4.8 0.00 0.00 0.00 73 1016.1
20260905091056 25 0 0.0 6.4 0.00 0.00 0.00 74 1016.1
20260905090555 24 0 0.0 9.7 0.00 0.00 0.00 75 1016.2
20260905090056 24 0 0.0 9.7 0.00 0.00 0.00 75 1016.1
20260905085555 24 280 1.6 9.7 0.00 0.00 0.00 75 1016.2
20260905084557 24 280 3.2 6.4 0.00 0.00 0.00 74 1016.2
20260905084055 25 280 1.6 9.7 0.00 0.00 0.00 75 1016.2
20260905083557 25 280 1.6 9.7 0.00 0.00 0.00 75 1016.2
20260905083055 25 0 0.0 3.2 0.00 0.00 0.00 75 1016.3
20260905082555 25 0 0.0 3.2 0.00 0.00 0.00 74 1016.4
20260905082055 25 0 0.0 3.2 0.00 0.00 0.00 75 1016.4
20260905081555 25 0 0.0 3.2 0.00 0.00 0.00 74 1016.4
20260905081055 25 0 0.0 0.0 0.00 0.00 0.00 74 1016.5
20260905080555 25 0 0.0 0.0 0.00 0.00 0.00 74 1016.5
20260905080054 25 0 0.0 0.0 0.00 0.00 0.00 74 1016.6
20260905075555 25 0 0.0 0.0 0.00 0.00 0.00 74 1016.6
20260905075055 25 0 0.0 0.0 0.00 0.00 0.00 74 1016.7
20260905074555 25 0 0.0 0.0 0.00 0.00 0.00 73 1016.7
20260905074055 25 0 0.0 0.0 0.00 0.00 0.00 73 1016.8
20260905073555 25 0 0.0 0.0 0.00 0.00 0.00 73 1016.8
20260905073055 26 0 0.0 4.8 0.00 0.00 0.00 72 1016.8
20260905072555 26 0 0.0 4.8 0.00 0.00 0.00 72 1016.9
20260905072054 26 0 0.0 0.0 0.00 0.00 0.00 72 1016.9
20260905071554 26 0 0.0 0.0 0.00 0.00 0.00 72 1017.0
20260905071054 26 0 0.0 0.0 0.00 0.00 0.00 72 1017.2
20260905070554 25 0 0.0 0.0 0.00 0.00 0.00 72 1017.2
20260905070054 25 0 0.0 0.0 0.00 0.00 0.00 73 1017.3
20260905065555 25 0 0.0 0.0 0.00 0.00 0.00 74 1017.4
20260905065055 25 0 0.0 4.8 0.00 0.00 0.00 76 1017.3
20260905064554 25 0 0.0 4.8 0.00 0.00 0.00 76 1017.3
20260905064054 25 280 3.2 4.8 0.00 0.00 0.00 75 1017.4
20260905063555 25 280 1.6 4.8 0.00 0.00 0.00 75 1017.4
20260905063055 25 0 0.0 0.0 0.00 0.00 0.00 73 1017.4
20260905062428 25 0 0.0 3.2 0.00 0.00 0.00 75 1017.5
20260905061929 25 0 0.0 1.6 0.00 0.00 0.00 75 1017.6
20260905061430 25 0 0.0 0.0 0.00 0.00 0.00 76 1017.7
20260905060928 25 0 0.0 3.2 0.00 0.00 0.00 76 1017.8
20260905060431 25 0 0.0 14.5 0.00 0.00 0.00 77 1017.9
20260905055930 25 0 0.0 14.5 0.00 0.00 0.00 77 1018.0
20260905055429 25 280 3.2 14.5 0.00 0.00 0.00 76 1018.0
20260905054928 25 280 1.6 6.4 0.00 0.00 0.00 76 1018.1
20260905054428 25 0 0.0 4.8 0.00 0.00 0.00 77 1018.4
20260905053928 25 0 0.0 0.0 0.00 0.00 0.00 78 1018.5
20260905053428 25 0 0.0 0.0 0.00 0.00 0.00 77 1018.6
20260905052928 25 0 0.0 4.8 0.00 0.00 0.00 77 1018.6
20260905052430 25 0 0.0 4.8 0.00 0.00 0.00 77 1018.5